| time (UTC) | temp C | wind direction | speed KPH | gust KPH | rain 1hr cm | rain 24hr cm | rain mn cm | humidity % | barometer mb |
| 20260504070235 | 8 | 230 | 3.2 | 6.4 | 0.00 | 0.00 | 0.00 | 59 | 1009.3 |
| 20260504060237 | 7 | 131 | 1.6 | 3.2 | 0.00 | 0.00 | 0.00 | 71 | 1009.4 |
| 20260504050730 | 7 | 207 | 0.0 | 0.0 | 0.00 | 0.00 | 0.00 | 68 | 1009.7 |
| 20260504050243 | 8 | 207 | 0.0 | 0.0 | 0.00 | 0.00 | 0.00 | 67 | 1009.7 |
| 20260504045738 | 8 | 181 | 0.0 | 0.0 | 0.00 | 0.00 | 0.00 | 65 | 1009.8 |
| 20260504045251 | 8 | 181 | 0.0 | 0.0 | 0.00 | 0.00 | 0.00 | 66 | 1010.1 |
| 20260504044757 | 8 | 181 | 0.0 | 0.0 | 0.00 | 0.00 | 0.00 | 67 | 1010.3 |
| 20260504044246 | 8 | 181 | 0.0 | 0.0 | 0.00 | 0.00 | 0.00 | 66 | 1010.3 |
| 20260504043736 | 8 | 170 | 0.0 | 0.0 | 0.00 | 0.00 | 0.00 | 64 | 1010.4 |
| 20260504043231 | 8 | 171 | 0.0 | 0.0 | 0.00 | 0.00 | 0.00 | 65 | 1010.4 |
| 20260504042742 | 8 | 170 | 0.0 | 0.0 | 0.00 | 0.00 | 0.00 | 66 | 1010.4 |
| 20260504042233 | 8 | 170 | 0.0 | 3.2 | 0.00 | 0.00 | 0.00 | 65 | 1010.5 |
| 20260504041727 | 8 | 114 | 3.2 | 3.2 | 0.00 | 0.00 | 0.00 | 63 | 1010.6 |
| 20260504041239 | 8 | 302 | 1.6 | 3.2 | 0.00 | 0.00 | 0.00 | 66 | 1010.6 |
| 20260504040733 | 8 | 301 | 0.0 | 3.2 | 0.00 | 0.00 | 0.00 | 66 | 1010.6 |
| 20260504040244 | 8 | 216 | 1.6 | 4.8 | 0.00 | 0.00 | 0.00 | 65 | 1010.5 |
| 20260504035757 | 8 | 292 | 1.6 | 4.8 | 0.00 | 0.00 | 0.00 | 60 | 1010.4 |
| 20260504035305 | 7 | 168 | 1.6 | 4.8 | 0.00 | 0.00 | 0.00 | 61 | 1010.3 |
| 20260504034736 | 7 | 267 | 1.6 | 4.8 | 0.00 | 0.00 | 0.00 | 67 | 1010.4 |
| 20260504034228 | 7 | 291 | 3.2 | 4.8 | 0.00 | 0.00 | 0.00 | 67 | 1010.3 |
| 20260504033736 | 7 | 261 | 1.6 | 4.8 | 0.00 | 0.00 | 0.00 | 66 | 1010.2 |
| 20260504033246 | 7 | 271 | 0.0 | 4.8 | 0.00 | 0.00 | 0.00 | 65 | 1010.1 |
| 20260504032758 | 7 | 271 | 3.2 | 4.8 | 0.00 | 0.00 | 0.00 | 67 | 1010.3 |
| 20260504032229 | 7 | 259 | 1.6 | 3.2 | 0.00 | 0.00 | 0.00 | 65 | 1010.1 |
| 20260504031802 | 7 | 258 | 1.6 | 4.8 | 0.00 | 0.00 | 0.00 | 63 | 1010.1 |
| 20260504031232 | 7 | 258 | 3.2 | 4.8 | 0.00 | 0.00 | 0.00 | 65 | 1010.1 |
| 20260504030806 | 7 | 256 | 1.6 | 4.8 | 0.00 | 0.00 | 0.00 | 67 | 1010.0 |
| 20260504030233 | 6 | 256 | 3.2 | 3.2 | 0.00 | 0.00 | 0.00 | 67 | 1010.1 |
| 20260504025744 | 6 | 259 | 1.6 | 3.2 | 0.00 | 0.00 | 0.00 | 70 | 1010.1 |
| 20260504025237 | 6 | 259 | 1.6 | 3.2 | 0.00 | 0.00 | 0.00 | 71 | 1010.1 |
| 20260504024730 | 6 | 259 | 1.6 | 4.8 | 0.00 | 0.00 | 0.00 | 71 | 1010.1 |
| 20260504024244 | 6 | 259 | 1.6 | 4.8 | 0.00 | 0.00 | 0.00 | 71 | 1010.1 |
| 20260504023736 | 5 | 265 | 3.2 | 4.8 | 0.00 | 0.00 | 0.00 | 71 | 1010.2 |
| 20260504023245 | 5 | 280 | 1.6 | 3.2 | 0.00 | 0.00 | 0.00 | 72 | 1010.1 |
| 20260504022738 | 5 | 280 | 1.6 | 1.6 | 0.00 | 0.00 | 0.00 | 70 | 1010.3 |
| 20260504022307 | 6 | 280 | 1.6 | 1.6 | 0.00 | 0.00 | 0.00 | 71 | 1010.2 |
| 20260504021737 | 6 | 280 | 1.6 | 1.6 | 0.00 | 0.00 | 0.00 | 69 | 1010.2 |
| 20260504021229 | 6 | 280 | 1.6 | 1.6 | 0.00 | 0.00 | 0.00 | 69 | 1010.2 |
| 20260504020741 | 6 | 280 | 1.6 | 3.2 | 0.00 | 0.00 | 0.00 | 69 | 1010.3 |
| 20260504020253 | 6 | 280 | 1.6 | 3.2 | 0.00 | 0.00 | 0.00 | 70 | 1010.2 |
| 20260504015743 | 6 | 280 | 1.6 | 4.8 | 0.00 | 0.00 | 0.00 | 67 | 1010.3 |
| 20260504015255 | 6 | 289 | 3.2 | 4.8 | 0.00 | 0.00 | 0.00 | 67 | 1010.2 |
| 20260504014746 | 6 | 260 | 1.6 | 4.8 | 0.00 | 0.00 | 0.00 | 67 | 1010.2 |
| 20260504014257 | 6 | 235 | 3.2 | 6.4 | 0.00 | 0.00 | 0.00 | 66 | 1010.1 |
| 20260504013806 | 6 | 281 | 1.6 | 4.8 | 0.00 | 0.00 | 0.00 | 64 | 1010.2 |
| 20260504013236 | 6 | 257 | 3.2 | 4.8 | 0.00 | 0.00 | 0.00 | 64 | 1010.1 |
| 20260504012749 | 6 | 270 | 0.0 | 0.0 | 0.00 | 0.00 | 0.00 | 63 | 1010.1 |
| 20260504012239 | 6 | 284 | 0.0 | 0.0 | 0.00 | 0.00 | 0.00 | 64 | 1010.1 |
| 20260504011753 | 6 | 285 | 0.0 | 0.0 | 0.00 | 0.00 | 0.00 | 65 | 1009.9 |
| 20260504011241 | 6 | 258 | 0.0 | 0.0 | 0.00 | 0.00 | 0.00 | 63 | 1009.9 |
| 20260504010753 | 6 | 285 | 0.0 | 0.0 | 0.00 | 0.00 | 0.00 | 62 | 1009.8 |
| 20260504010244 | 6 | 229 | 0.0 | 4.8 | 0.00 | 0.00 | 0.00 | 59 | 1009.7 |
| 20260504005739 | 7 | 268 | 1.6 | 4.8 | 0.00 | 0.00 | 0.00 | 63 | 1009.6 |
| 20260504005233 | 7 | 275 | 1.6 | 4.8 | 0.00 | 0.00 | 0.00 | 60 | 1009.6 |
| 20260504004746 | 7 | 294 | 1.6 | 4.8 | 0.00 | 0.00 | 0.00 | 59 | 1009.6 |
| 20260504004240 | 7 | 291 | 1.6 | 4.8 | 0.00 | 0.00 | 0.00 | 57 | 1009.6 |
| 20260504003752 | 7 | 291 | 1.6 | 4.8 | 0.00 | 0.00 | 0.00 | 56 | 1009.5 |
| 20260504003302 | 8 | 289 | 1.6 | 4.8 | 0.00 | 0.00 | 0.00 | 57 | 1009.6 |
| 20260504002749 | 8 | 287 | 0.0 | 3.2 | 0.00 | 0.00 | 0.00 | 53 | 1009.5 |
| 20260504002242 | 8 | 280 | 0.0 | 3.2 | 0.00 | 0.00 | 0.00 | 52 | 1009.4 |
| 20260504001736 | 8 | 280 | 1.6 | 3.2 | 0.00 | 0.00 | 0.00 | 50 | 1009.4 |
| 20260504001229 | 9 | 280 | 0.0 | 3.2 | 0.00 | 0.00 | 0.00 | 48 | 1009.5 |
| 20260504000740 | 10 | 280 | 0.0 | 3.2 | 0.00 | 0.00 | 0.00 | 48 | 1009.3 |
| 20260504000234 | 10 | 280 | 0.0 | 3.2 | 0.00 | 0.00 | 0.00 | 46 | 1009.3 |
| 20260503235804 | 10 | 280 | 1.6 | 3.2 | 0.00 | 0.00 | 0.00 | 49 | 1009.3 |
| 20260503235235 | 10 | 4 | 0.0 | 1.6 | 0.00 | 0.00 | 0.00 | 43 | 1009.1 |
| 20260503234746 | 10 | 4 | 0.0 | 3.2 | 0.00 | 0.00 | 0.00 | 42 | 1009.2 |
| 20260503234258 | 11 | 4 | 0.0 | 3.2 | 0.00 | 0.00 | 0.00 | 45 | 1009.1 |
| 20260503233731 | 11 | 64 | 1.6 | 3.2 | 0.00 | 0.00 | 0.00 | 42 | 1009.0 |
| 20260503233243 | 11 | 272 | 0.0 | 4.8 | 0.00 | 0.00 | 0.00 | 43 | 1009.0 |
| 20260503232735 | 11 | 31 | 1.6 | 4.8 | 0.00 | 0.00 | 0.00 | 41 | 1008.9 |
| 20260503232245 | 11 | 64 | 1.6 | 6.4 | 0.00 | 0.00 | 0.00 | 38 | 1008.9 |
| 20260503231736 | 11 | 288 | 3.2 | 8.0 | 0.00 | 0.00 | 0.00 | 38 | 1008.7 |
| 20260503231249 | 11 | 277 | 3.2 | 6.4 | 0.00 | 0.00 | 0.00 | 39 | 1008.6 |
| 20260503230741 | 11 | 16 | 1.6 | 6.4 | 0.00 | 0.00 | 0.00 | 36 | 1008.7 |
| 20260503230234 | 11 | 339 | 3.2 | 12.9 | 0.00 | 0.00 | 0.00 | 36 | 1008.5 |
| 20260503225746 | 12 | 45 | 6.4 | 12.9 | 0.00 | 0.00 | 0.00 | 35 | 1008.6 |
| 20260503225236 | 12 | 70 | 4.8 | 12.9 | 0.00 | 0.00 | 0.00 | 34 | 1008.6 |
| 20260503224728 | 12 | 333 | 3.2 | 12.9 | 0.00 | 0.00 | 0.00 | 34 | 1008.5 |
| 20260503224238 | 12 | 48 | 4.8 | 12.9 | 0.00 | 0.00 | 0.00 | 34 | 1008.5 |
| 20260503223733 | 12 | 23 | 3.2 | 16.1 | 0.00 | 0.00 | 0.00 | 32 | 1008.5 |
| 20260503223240 | 12 | 68 | 6.4 | 16.1 | 0.00 | 0.00 | 0.00 | 32 | 1008.6 |
| 20260503222731 | 12 | 339 | 4.8 | 22.5 | 0.00 | 0.00 | 0.00 | 31 | 1008.5 |
| 20260503222301 | 12 | 48 | 8.0 | 22.5 | 0.00 | 0.00 | 0.00 | 30 | 1008.5 |
| 20260503221732 | 13 | 4 | 3.2 | 8.0 | 0.00 | 0.00 | 0.00 | 30 | 1008.4 |
| 20260503221307 | 13 | 272 | 4.8 | 11.3 | 0.00 | 0.00 | 0.00 | 30 | 1008.3 |
| 20260503220735 | 12 | 293 | 4.8 | 20.9 | 0.00 | 0.00 | 0.00 | 29 | 1008.2 |
| 20260503220307 | 12 | 316 | 9.7 | 20.9 | 0.00 | 0.00 | 0.00 | 29 | 1008.3 |
| 20260503215739 | 12 | 64 | 9.7 | 25.7 | 0.00 | 0.00 | 0.00 | 29 | 1008.3 |
| 20260503215230 | 12 | 51 | 11.3 | 25.7 | 0.00 | 0.00 | 0.00 | 29 | 1008.3 |
| 20260503214745 | 12 | 8 | 11.3 | 19.3 | 0.00 | 0.00 | 0.00 | 29 | 1008.4 |
| 20260503214237 | 12 | 37 | 8.0 | 14.5 | 0.00 | 0.00 | 0.00 | 29 | 1008.4 |
| 20260503213728 | 13 | 18 | 4.8 | 14.5 | 0.00 | 0.00 | 0.00 | 28 | 1008.2 |
| 20260503213240 | 13 | 60 | 4.8 | 17.7 | 0.00 | 0.00 | 0.00 | 28 | 1008.3 |
| 20260503212734 | 13 | 306 | 8.0 | 14.5 | 0.00 | 0.00 | 0.00 | 28 | 1008.2 |
| 20260503212247 | 13 | 307 | 4.8 | 19.3 | 0.00 | 0.00 | 0.00 | 30 | 1008.3 |
| 20260503211736 | 13 | 267 | 11.3 | 19.3 | 0.00 | 0.00 | 0.00 | 27 | 1008.2 |
| 20260503211248 | 13 | 283 | 4.8 | 17.7 | 0.00 | 0.00 | 0.00 | 28 | 1008.1 |
| 20260503210739 | 13 | 59 | 4.8 | 17.7 | 0.00 | 0.00 | 0.00 | 28 | 1008.1 |
| 20260503210253 | 13 | 270 | 9.7 | 16.1 | 0.00 | 0.00 | 0.00 | 28 | 1008.2 |
| 20260503205741 | 13 | 54 | 8.0 | 22.5 | 0.00 | 0.00 | 0.00 | 28 | 1008.3 |
| 20260503205235 | 12 | 318 | 9.7 | 22.5 | 0.00 | 0.00 | 0.00 | 29 | 1008.3 |
| 20260503204727 | 13 | 232 | 6.4 | 20.9 | 0.00 | 0.00 | 0.00 | 29 | 1008.4 |
| 20260503204300 | 12 | 303 | 8.0 | 20.9 | 0.00 | 0.00 | 0.00 | 28 | 1008.4 |
| 20260503203751 | 13 | 42 | 6.4 | 16.1 | 0.00 | 0.00 | 0.00 | 28 | 1008.4 |
| 20260503203242 | 12 | 276 | 8.0 | 19.3 | 0.00 | 0.00 | 0.00 | 30 | 1008.5 |
| 20260503202732 | 12 | 51 | 8.0 | 16.1 | 0.00 | 0.00 | 0.00 | 30 | 1008.4 |
| 20260503202244 | 12 | 48 | 4.8 | 17.7 | 0.00 | 0.00 | 0.00 | 30 | 1008.5 |
| 20260503201736 | 12 | 308 | 8.0 | 17.7 | 0.00 | 0.00 | 0.00 | 31 | 1008.6 |
| 20260503201229 | 12 | 22 | 8.0 | 17.7 | 0.00 | 0.00 | 0.00 | 29 | 1008.6 |
| 20260503200741 | 12 | 328 | 6.4 | 14.5 | 0.00 | 0.00 | 0.00 | 30 | 1008.7 |
| 20260503200233 | 12 | 50 | 4.8 | 11.3 | 0.00 | 0.00 | 0.00 | 33 | 1008.7 |
| 20260503195747 | 12 | 285 | 8.0 | 12.9 | 0.00 | 0.00 | 0.00 | 34 | 1008.7 |
| 20260503195236 | 12 | 33 | 4.8 | 12.9 | 0.00 | 0.00 | 0.00 | 33 | 1008.9 |
| 20260503194746 | 12 | 18 | 4.8 | 16.1 | 0.00 | 0.00 | 0.00 | 34 | 1008.9 |
| 20260503194239 | 12 | 300 | 8.0 | 19.3 | 0.00 | 0.00 | 0.00 | 34 | 1008.9 |
| 20260503193730 | 11 | 53 | 6.4 | 19.3 | 0.00 | 0.00 | 0.00 | 36 | 1009.0 |
| 20260503193243 | 12 | 343 | 8.0 | 17.7 | 0.00 | 0.00 | 0.00 | 37 | 1009.1 |
| 20260503192734 | 12 | 307 | 9.7 | 17.7 | 0.00 | 0.00 | 0.00 | 33 | 1009.1 |
| 20260503192228 | 12 | 342 | 6.4 | 20.9 | 0.00 | 0.00 | 0.00 | 38 | 1009.2 |
| 20260503191740 | 12 | 283 | 9.7 | 19.3 | 0.00 | 0.00 | 0.00 | 34 | 1009.3 |
| 20260503191233 | 12 | 21 | 4.8 | 12.9 | 0.00 | 0.00 | 0.00 | 37 | 1009.2 |
| 20260503190745 | 11 | 291 | 4.8 | 17.7 | 0.00 | 0.00 | 0.00 | 35 | 1009.2 |
| 20260503190238 | 11 | 11 | 6.4 | 17.7 | 0.00 | 0.00 | 0.00 | 36 | 1009.5 |
| 20260503185730 | 11 | 289 | 8.0 | 17.7 | 0.00 | 0.00 | 0.00 | 37 | 1009.4 |
| 20260503185241 | 11 | 12 | 6.4 | 14.5 | 0.00 | 0.00 | 0.00 | 36 | 1009.4 |
| 20260503184733 | 11 | 359 | 1.6 | 17.7 | 0.00 | 0.00 | 0.00 | 38 | 1009.4 |
| 20260503184242 | 11 | 69 | 8.0 | 17.7 | 0.00 | 0.00 | 0.00 | 37 | 1009.5 |
| 20260503183735 | 11 | 57 | 3.2 | 17.7 | 0.00 | 0.00 | 0.00 | 38 | 1009.5 |
| 20260503183246 | 11 | 75 | 8.0 | 17.7 | 0.00 | 0.00 | 0.00 | 39 | 1009.6 |
| 20260503182757 | 10 | 31 | 6.4 | 16.1 | 0.00 | 0.00 | 0.00 | 38 | 1009.6 |
| 20260503182229 | 10 | 289 | 6.4 | 19.3 | 0.00 | 0.00 | 0.00 | 38 | 1009.7 |
| 20260503181740 | 10 | 297 | 6.4 | 19.3 | 0.00 | 0.00 | 0.00 | 38 | 1009.7 |
| 20260503181230 | 10 | 339 | 3.2 | 29.0 | 0.00 | 0.00 | 0.00 | 41 | 1009.8 |
| 20260503180741 | 10 | 63 | 3.2 | 29.0 | 0.00 | 0.00 | 0.00 | 42 | 1009.7 |
| 20260503180232 | 10 | 280 | 6.4 | 16.1 | 0.00 | 0.00 | 0.00 | 45 | 1010.0 |
| 20260503175744 | 10 | 354 | 8.0 | 16.1 | 0.00 | 0.00 | 0.00 | 41 | 1009.9 |
| 20260503175237 | 10 | 354 | 8.0 | 14.5 | 0.00 | 0.00 | 0.00 | 40 | 1009.8 |
| 20260503174731 | 10 | 8 | 4.8 | 9.7 | 0.00 | 0.00 | 0.00 | 42 | 1010.0 |
| 20260503174243 | 9 | 59 | 3.2 | 16.1 | 0.00 | 0.00 | 0.00 | 42 | 1009.9 |
| 20260503173734 | 9 | 289 | 6.4 | 22.5 | 0.00 | 0.00 | 0.00 | 42 | 1010.1 |
| 20260503173246 | 9 | 10 | 9.7 | 22.5 | 0.00 | 0.00 | 0.00 | 43 | 1010.1 |
| 20260503172739 | 9 | 306 | 6.4 | 12.9 | 0.00 | 0.00 | 0.00 | 43 | 1010.2 |
| 20260503172232 | 9 | 26 | 8.0 | 12.9 | 0.00 | 0.00 | 0.00 | 41 | 1010.1 |
| 20260503171806 | 9 | 328 | 8.0 | 16.1 | 0.00 | 0.00 | 0.00 | 42 | 1010.2 |
| 20260503171236 | 9 | 36 | 8.0 | 17.7 | 0.00 | 0.00 | 0.00 | 41 | 1010.4 |
| 20260503170729 | 8 | 338 | 8.0 | 22.5 | 0.00 | 0.00 | 0.00 | 41 | 1010.2 |
| 20260503170241 | 8 | 354 | 9.7 | 22.5 | 0.00 | 0.00 | 0.00 | 44 | 1010.3 |
| 20260503150747 | 8 | 59 | 8.0 | 16.1 | 0.00 | 0.00 | 0.00 | 38 | 1010.5 |
| 20260503150240 | 9 | 11 | 9.7 | 16.1 | 0.00 | 0.00 | 0.00 | 39 | 1010.5 |
| 20260503140253 | 7 | 59 | 8.0 | 14.5 | 0.00 | 0.00 | 0.00 | 55 | 1010.5 |
| 20260503131248 | 6 | 73 | 4.8 | 12.9 | 0.00 | 0.00 | 0.00 | 59 | 1010.9 |
| 20260503130738 | 6 | 314 | 3.2 | 20.9 | 0.00 | 0.00 | 0.00 | 60 | 1011.0 |
| 20260503130252 | 6 | 295 | 9.7 | 25.7 | 0.00 | 0.00 | 0.00 | 59 | 1011.0 |
| 20260503110741 | 4 | 345 | 11.3 | 20.9 | 0.00 | 0.00 | 0.00 | 70 | 1010.0 |
| 20260503110252 | 4 | 341 | 8.0 | 16.1 | 0.00 | 0.00 | 0.00 | 70 | 1010.1 |
| 20260503090258 | 4 | 283 | 6.4 | 11.3 | 0.00 | 0.00 | 0.00 | 71 | 1010.0 |
| 20260503081230 | 3 | 309 | 1.6 | 11.3 | 0.00 | 0.00 | 0.00 | 71 | 1010.1 |
| 20260503080741 | 3 | 277 | 4.8 | 11.3 | 0.00 | 0.00 | 0.00 | 71 | 1010.2 |
| 20260503080234 | 3 | 349 | 3.2 | 11.3 | 0.00 | 0.00 | 0.00 | 71 | 1010.3 |
| 20260503072744 | 3 | 301 | 8.0 | 17.7 | 0.00 | 0.00 | 0.00 | 71 | 1010.3 |
| 20260503072237 | 3 | 306 | 6.4 | 24.1 | 0.00 | 0.00 | 0.00 | 71 | 1010.5 |
| 20260503071749 | 3 | 280 | 6.4 | 24.1 | 0.00 | 0.00 | 0.00 | 71 | 1010.5 |
| 20260503071256 | 3 | 324 | 11.3 | 24.1 | 0.00 | 0.00 | 0.00 | 71 | 1010.6 |
| 20260503070746 | 3 | 314 | 11.3 | 20.9 | 0.00 | 0.00 | 0.00 | 72 | 1010.6 |